Location: Krakow
(50.0830°N, 19.9170°E)
Time: 18:02:59
(UTC+02:00)

Transit 2A Rocket - Visible Passes

Search period start: 20 September 2024 00:00
Search period end: 30 September 2024 00:00
Orbit: 582 x 909 km, 66.7° (Epoch: 19 September)

Date Brightness Start Highest point End Pass type
(mag) Time Alt. Az. Time Alt. Az. Time Alt. Az.
20 Sep 7.0 01:21:47 28° NNW 01:21:47 28° NNW 01:26:27 10° NNE visible
20 Sep 7.7 03:02:01 10° NW 03:05:45 16° N 03:09:26 10° NNE visible
20 Sep 7.6 04:46:19 10° NNW 04:50:35 20° NNE 04:54:43 10° ENE visible
20 Sep 7.5 22:58:41 15° NE 22:58:41 15° NE 22:59:36 10° NE visible
21 Sep 6.9 00:38:26 31° N 00:38:26 31° N 00:42:07 10° NNE visible
21 Sep 7.5 02:18:12 14° NW 02:20:43 18° NNW 02:24:45 10° NNE visible
21 Sep 7.7 04:01:43 10° NNW 04:05:35 17° N 04:09:20 10° NE visible
21 Sep 6.8 05:44:33 10° NNW 05:49:56 34° NE 05:54:58 10° E visible
21 Sep 7.1 23:55:04 27° NNE 23:55:04 27° NNE 23:57:48 10° NNE visible
22 Sep 7.3 01:34:49 20° NW 01:35:44 21° NNW 01:40:14 10° NNE visible
22 Sep 7.8 03:16:54 10° NNW 03:20:32 16° N 03:24:04 10° NE visible
22 Sep 7.2 05:00:11 10° NNW 05:05:08 26° NNE 05:09:49 10° E visible
22 Sep 7.3 23:11:40 20° NNE 23:11:40 20° NNE 23:13:27 10° NE visible
23 Sep 7.2 00:51:25 26° NNW 00:51:25 26° NNW 00:55:50 10° NNE visible
23 Sep 7.8 02:31:49 10° NW 02:35:27 16° N 02:39:02 10° NNE visible
23 Sep 7.5 04:15:47 10° NNW 04:20:14 21° NNE 04:24:30 10° ENE visible
23 Sep 7.5 22:28:13 14° NE 22:28:13 14° NE 22:29:03 10° NE visible
24 Sep 7.1 00:07:59 28° N 00:07:59 28° N 00:11:29 10° NNE visible
24 Sep 7.7 01:47:44 13° NW 01:50:23 17° NNW 01:54:13 10° NNE visible
24 Sep 7.7 03:31:16 10° NNW 03:35:15 18° NNE 03:39:07 10° ENE visible
24 Sep 6.6 05:13:57 10° NNW 05:19:27 39° NE 05:24:35 10° ESE visible
24 Sep 7.1 23:24:29 25° NNE 23:24:29 25° NNE 23:27:09 10° NNE visible
25 Sep 7.5 01:04:14 19° NNW 01:05:22 20° NNW 01:09:38 10° NNE visible
25 Sep 7.8 02:46:32 10° NNW 02:50:12 16° N 02:53:46 10° NE visible
25 Sep 7.1 04:29:35 10° NNW 04:34:42 29° NNE 04:39:30 10° E visible
25 Sep 7.2 22:40:55 21° NNE 22:40:55 21° NNE 22:42:49 10° NNE visible
26 Sep 7.3 00:20:39 24° NNW 00:20:39 24° NNW 00:25:12 10° NNE visible
26 Sep 7.8 02:01:33 10° NW 02:05:07 16° N 02:08:36 10° NE visible
26 Sep 7.4 03:45:13 10° NNW 03:49:51 23° NNE 03:54:14 10° ENE visible
26 Sep 5.6 05:27:40 10° NNW 05:33:30 65° NE 05:38:50 10° SE visible
26 Sep 7.3 21:57:13 17° NE 21:57:13 17° NE 21:58:25 10° NE visible
26 Sep 7.1 23:36:57 27° N 23:36:57 27° N 23:40:48 10° NNE visible
27 Sep 7.8 01:16:41 11° NW 01:20:02 16° N 01:23:42 10° NNE visible
27 Sep 7.6 03:00:43 10° NNW 03:04:53 19° NNE 03:08:52 10° ENE visible
27 Sep 6.3 04:43:18 10° NNW 04:48:55 44° NE 04:54:06 10° ESE visible
27 Sep 7.0 21:02:06 10° SSW 21:13:12 14° NE 21:13:57 10° NE visible
27 Sep 6.9 22:52:53 31° N 22:52:53 31° N 22:56:29 10° NNE visible
28 Sep 7.7 00:32:34 15° NW 00:34:59 18° NNW 00:39:01 10° NNE visible
28 Sep 7.8 02:16:05 10° NNW 02:19:50 17° N 02:23:28 10° NE visible
28 Sep 6.8 03:58:57 10° NNW 04:04:13 32° NE 04:09:08 10° E visible
28 Sep 5.1 05:41:28 10° NW 05:47:14 70° WSW 05:52:29 10° SSE visible
28 Sep 5.7 20:18:19 10° S 20:23:46 37° ESE 20:29:18 10° NE visible
28 Sep 5.9 22:00:13 10° SW 22:06:10 55° NW 22:12:08 10° NNE visible
28 Sep 7.5 23:45:24 10° WNW 23:49:59 22° NNW 23:54:31 10° NNE visible
29 Sep 7.8 01:31:12 10° NW 01:34:45 16° N 01:38:13 10° NE visible
29 Sep 7.2 03:14:34 10° NNW 03:19:23 25° NNE 03:23:55 10° E visible
29 Sep 5.3 04:57:01 10° NW 05:02:51 77° NE 05:08:10 10° SE visible
29 Sep 6.3 19:35:02 10° SSE 19:39:41 24° ESE 19:44:24 10° ENE visible
29 Sep 5.3 21:15:36 10° SW 21:21:39 80° NW 21:27:45 10° NE visible
29 Sep 7.2 23:00:00 10° W 23:05:04 27° NNW 23:10:07 10° NNE visible
